Погода в Ребрихе

Погода в Ребрихе : погода сейчас, прогноз погоды и архив. Всё, что Вы хотите узнать о погоде в Ребрихе!

Хотите узнать прогноз погоды в Ребрихе? Тогда Вам сюда: Погода в Ребрихе

Поиск расширенной информации на нашем сайте:

Другие новости

Новости СМИ2

Главная страница сайта

Новости сайта

03.07.2017

Напоминаем, что на нашем специализированном сайте Метеоцентр.Азия вы можете получить высокодетализированные автоматические прогнозы погоды по пунктам России, СНГ и мира в авиационном формате (включающие направление и скорость ветра, видимость, явления погоды, количество и форму облачности, нижнюю и верхнюю границу облачности).


Погода в Ребрихе - сегодня

Время (UTC), дата Ветер
(°,м/с) 
Видим.   Явления Облачность Т
(°С)
Тd
(°С)
f(%) Тe
(°С)
Pmin
(гПа)
dP
(гПа)
Po
(мм)
O2
(г/м3)
Тmin Tmax R s Состояние
почвы
09 19.04.18 080 (В) н/о    н/о 
+5.4 -8.9 35 +3  1015.3  -1.8  741  294           
12 19.04.18 100 (В) 3{10}  н/о    н/о 
+4.9 -8.1 38 +4  1015.4  741  294    +5.9       
15 19.04.18 280 (З) н/о    н/о 
+1.3 -5.5 60 +2  1017.6  1.8  743  298           
18 19.04.18 210 (ЮЗ) н/о    н/о 
-3.8 -5.1 91 -5  1019.6  1.4  744  305           
21 19.04.18 180 (Ю) н/о    н/о 
-5 -6.1 92 -5  1021.5  1.8  745  306           
00 20.04.18 200 (Ю) н/о    н/о 
-4.2 -6.2 86 -5  1023.1  1.5  746  306  -5.9         
03 20.04.18 160 (Ю) н/о    н/о 
+4.3 -3.7 56 +3  1023.1  0.9  747  297           
06 20.04.18 180 (Ю) 6{10}  н/о    н/о 
+6.8 -4.6 44 +5  1022.5  -0.4  747  294           
09 20.04.18 160 (Ю) 8-12{12}  н/о    н/о 
+9.3 -5.3 35 +7  1021  -1.2  746  291           
12 20.04.18 160 (Ю) 5{12}  н/о    н/о 
+8.7 -4.1 40 +7  1020  -1  745  291    +9.7       
15 20.04.18 150 (ЮВ) н/о    н/о 
+4.6 -0.1 72 +2  1019.9  -0.4  745  295           
18 20.04.18 150 (ЮВ) 5{10}  н/о    н/о 
+3.2 -0.8 75 +1  1018.6  -1.4  744  296           
21 20.04.18 160 (Ю) н/о    н/о 
+5.2 -1.7 61 +3  1017.2  -1.2  743  294           
00 21.04.18 180 (Ю) 5{11}  н/о    н/о 
+6.5 -1.6 56 +5  1017  743  292  +3.2         
03 21.04.18 160 (Ю) 6{10}  н/о    н/о 
+8.7 -1.2 50 +7  1017.1  0.2  743  290           
06 21.04.18 160 (Ю) 7-10{14}  н/о    н/о 
+13.2 -1 37 +12  1016.4  -0.2  743  286           
09 21.04.18 160 (Ю) 7-12{13}  н/о    н/о 
+16.4 +0.1 33 +16  1014.8  -1.3  742  282           
12 21.04.18 160 (Ю) 6{12}  н/о    н/о 
+16.2 +0.4 34 +16  1014  -0.8  741  282    +17.5       
15 21.04.18 150 (ЮВ) 5{11}  н/о    н/о 
+12.4 -1.4 38 +12  1013.9  -0.5  741  286           
18 21.04.18 130 (ЮВ) н/о    н/о 
+9.4 -2.3 44 +8  1013  -1  740  288           
21 21.04.18 160 (Ю) н/о    н/о 
+8.3 -1.9 49 +7  1011.3  -1.8  739  289           
00 22.04.18 150 (ЮВ) 6{10}  н/о    н/о 
+7.6 -0.9 55 +6  1010.5  -0.9  738  289  +7.3         
03 22.04.18 160 (Ю) 7-10{10}  н/о    н/о 
+13.7 -0.1 39 +13  1009.6  -0.3  738  283           
06 22.04.18 180 (Ю) 7-10{13}  н/о    н/о 
+16.4 -0.4 32 +16  1009.7  0.4  738  281           
09 22.04.18 190 (Ю) 6{12}  н/о    н/о 
+17.3 +0.9 33 +17  1010.1  0.5  738  280           
Время (UTC), дата Ветер
(°,м/с) 
Видим.   Явления Облачность Т
(°С)
Тd
(°С)
f(%) Тe
(°С)
Pmin
(гПа)
dP
(гПа)
Po
(мм)
O2
(г/м3)
Тmin Tmax R s Состояние
почвы

Для получения пояснительной информации подведите курсор к названию столбца.

ПОГОДА в Ребрихе - архив

Всё, что Вы хотите узнать о погоде в Ребрихе - удобно и подробно!

Выберите нужную дату (начиная с 1 января 2015* года) и нажмите кнопку "Найти".
Будут отображены архивные сводки погоды по пункту Ребриха, начиная с указанной даты.


Отображать данные в формате CSV (для использования в таблицах Excel)


Внимание! Наш архив погоды предназначен исключительно для личного некоммерческого использования в познавательных целях. Если Вам необходимы официальные справки о состоянии погоды (для производственных, юридических, коммерческих и т.п. целей), обращайтесь в органы Росгидромета.

*Примечание: данная дата относится к архиву по метеостанциям СССР (Россия, СНГ, Балтия).
Архив по метеостанциям Зарубежной Европы и Азии (кроме Китая) хранится 10 дней, по другим регионам земного шара (Китай, Африка, Америка, Австралия, Океания) - 1 день.

Ребриха - район местоположения метеостанции


Название, широта, долгота, высота метеостанции:
Ребриха 53.1°ш. 82.3°д. 219 м над ур. моря [Российская Федерация]

Дополнительная информация

В oтличие oт бoльшинства пoгoдных сайтoв мы публикуем пoдрoбную метеoинфoрмацию в детальнoм прoфессиoнальнoм фoрмате.

Характеристики температуры и влажнoсти вoздуха измеряются на высoте 2 м в тени вдали oт зданий и деревьев.
Скoрoсть ветра измеряется на высoте 10 м (на урoвне рoста челoвека скoрoсть ветра ниже в 1.5-2 раза). Если метеoстанция нахoдится в гoрoде или в лесу, тo скoрoсть ветра занижена на 2-4 м/с пo сравнению с oткрытым местoм. Скoрoсть ветра над акватoриями крупных рек и oзёр, а также на вершинах хoлмoв на 2-5 м/с выше, чем в oбычных услoвиях.
Атмoсфернoе давление в разных тoчках местнoсти мoжет значительнo oтличаться oт давления на метеoстанции, в зависимoсти oт услoвий рельефа (при пoдъёме на 10 м давление пoнижается примернo на 1 мм рт.ст.).